Skip Page Navigation
NASA JPL Caltech
NASA Logo - Jet Propulsion Laboratory + View the NASA Portal
+ Center for Near-Earth Object Studies
JPL Home Earth Solar System Stars & Galaxies Technology
JPL Solar System Dynamics
BODIES ORBITS EPHEMERIDES TOOLS PHYSICAL DATA DISCOVERY FAQ SITE MAP
IMPORTANT: The SSD Announcement email list is now available. Major changes are coming in the near future, including possible hostname and/or URL changes. To be notified of such changes, subscribe to this email list.

Please visit this page for more details.


JPL Small-Body Database Browser
Search: [ help ]  
324119 (2005 YG17)
Classification: Main-belt Asteroid          SPK-ID: 2324119
Ephemeris | Orbit Diagram | Orbital Elements | Mission Design | Physical Parameters | Discovery Circumstances ]

[ show orbit diagram ]
Orbital Elements at Epoch 2459000.5 (2020-May-31.0) TDB
Reference: JPL 9 (heliocentric ecliptic J2000)
 Element Value Uncertainty (1-sigma)   Units 
e .0606100193852649 1.4198e-07  
a 2.853547841404356 3.4378e-08 au
q 2.680594251420057 4.2014e-07 au
i 3.073119102793525 7.2866e-06 deg
node 119.6479005977617 0.00030073 deg
peri 289.5797511149665 0.00032118 deg
M 18.11413828452177 0.00011202 deg
tp 2458911.908645422210
(2020-Mar-03.40864542)
0.00054746 TDB
period 1760.662701534983
4.82
3.1818e-05
8.711e-08
d
yr
n .2044684650195318 3.695e-09 deg/d
Q 3.026501431388656 3.6462e-08 au
  Orbit Determination Parameters
   # obs. used (total)      124  
   data-arc span      6476 days (17.73 yr)  
   first obs. used      2002-02-07  
   last obs. used      2019-11-01  
   planetary ephem.      DE431  
   SB-pert. ephem.      SB431-N16  
   condition code      0  
   norm. resid. RMS      .55322  
   source      ORB  
   producer      Otto Matic  
   solution date      2019-Dec-04 22:07:03  

Additional Information
 Earth MOID = 1.69267 au 
 Jupiter MOID = 2.20359 au 
 T_jup = 3.300 
[ hide covariance matrix ]
Orbital Elements at Epoch 2457522.5 (2016-May-14.0) TDB
Reference: JPL 9 (heliocentric ecliptic J2000)
 Element Value Uncertainty (1-sigma)   Units 
e .05872268785313292 1.4499e-07  
q 2.686099487725281 4.2758e-07 au
tp 2457139.649603317434
(2015-Apr-27.14960332)
0.00054651 TDB
node 119.7747308349236 0.00030078 deg
peri 287.2940799018438 0.00032156 deg
i 3.073203943146527 7.3053e-06 deg
  Orbit Determination Parameters
   # obs. used (total)      124  
   data-arc span      6476 days (17.73 yr)  
   first obs. used      2002-02-07  
   last obs. used      2019-11-01  
   planetary ephem.      DE431  
   SB-pert. ephem.      SB431-N16  
   condition code      0  
   norm. resid. RMS      .55322  
   source      ORB  
   producer      Otto Matic  
   solution date      2019-Dec-04 22:07:03  

Additional Information
 Jupiter MOID = 2.20359 au 
 T_jup = 3.300 
Orbit Covariance (6×6)
  e q tp node peri i
e 2.102108949114808E-14 -6.184964721247315E-14 -6.508719333149348E-11 -1.145902086762946E-14 -1.348555940015817E-11 -2.333981812380759E-14
q -6.184964721247315E-14 1.828275202325837E-13 1.886837547580739E-10 4.92623696471151E-14 3.910218390141261E-11 6.946815315157323E-14
tp -6.508719333149348E-11 1.886837547580739E-10 2.98673983092007E-7 -1.533411360741322E-10 6.269516277990795E-8 7.582441734192732E-11
node -1.145902086762946E-14 4.92623696471151E-14 -1.533411360741322E-10 9.046867366463363E-8 -9.03725540090858E-8 1.531020215010032E-9
peri -1.348555940015817E-11 3.910218390141261E-11 6.269516277990795E-8 -9.03725540090858E-8 1.034006644574263E-7 -1.513100935983731E-9
i -2.333981812380759E-14 6.946815315157323E-14 7.582441734192732E-11 1.531020215010032E-9 -1.513100935983731E-9 5.336677688743061E-11

Ephemeris | Orbit Diagram | Orbital Elements | Mission Design | Physical Parameters | Discovery Circumstances ]

Physical Parameter Table
Parameter Symbol Value Units Sigma Reference Notes
absolute magnitude H 16.8   n/a MPO503348  

324119 (2005 YG17)          Discovered 2005-Dec-23 by Spacewatch at Kitt Peak
Reference: 20120406/Numbers.arcLast Updated: 2012-04-09

Alternate Designations
 2005 YG17 = 2007 EE183 
Ephemeris | Orbit Diagram | Orbital Elements | Mission Design | Physical Parameters | Discovery Circumstances ]
ABOUT SSD CREDITS/AWARDS PRIVACY/COPYRIGHT GLOSSARY LINKS
FirstGov 2020-May-29 07:19 UT
(server date/time)  
NASA Home Page
Site Manager:   Ryan S. Park
Webmaster  Alan B. Chamberlin